Tracking 29892 objects as of 21-Nov-2024
HD Live streaming from Space Station
objects crossing your sky now

SL-12 R/B(2)

Track SL-12 R/B(2) now!


NORAD ID: 28512
Int'l Code: 2004-053E
Perigee: 19,057.7 km
Apogee: 19,182.5 km
Inclination: 63.9 °
Period: 675.1 minutes
Semi major axis: 25491 km
RCS: 1.0403 m2 (large)
Launch date: December 26, 2004
Source: Commonwealth of Independent States (former USSR) (CIS)
Launch site: TYURATAM MISSILE AND SPACE COMPLEX (TTMTR)

Note: This is a ROCKET BODY
Your satellite tracking list
Your tracking list is empty




NASA's NSSDC Master Catalog

Two Line Element Set (TLE):
1 28512U 04053E   24325.70595875 -.00000006  00000-0  00000-0 0  9999
2 28512  63.8523  79.9428 0024479 230.7108 124.0860  2.13314773155051
Source of the keplerian elements: AFSPC